Grosse Ile, MI

4:31 PM EST on November 22, 2017 (GMT -0500)
Grosse Ile Municipal

Weather History for KONZ - July, 2014

Change the Weather History Date:

Friday, July 11, 2014

  Actual Average (KDTW) Record (KDTW)
Temperature  
Mean Temperature 68 °F -  
Max Temperature 77 °F 82 °F 101 °F (1936)
Min Temperature 60 °F 61 °F 47 °F (1978)
Cooling Degree Days 4    
Growing Degree Days 18 (Base 50)    
Moisture  
Dew Point 60 °F    
Average Humidity 70    
Maximum Humidity 88    
Minimum Humidity 53    
Precipitation  
Precipitation 0.00 in - - ()
Sea Level Pressure  
Sea Level Pressure 30.20 in    
Wind  
Wind Speed 5 mph (SE)    
Max Wind Speed 10 mph    
Max Gust Speed -    
Visibility 10 miles    
Events      
Averages and records for this station are not official NWS values.
T = Trace of Precipitation, MM = Missing Value Source: NWS Daily Summary

Daily Weather History Graph

Daily Weather History Graph

Search for Another Location

Airport or City:

Trip Planner

Search our weather history database for the weather conditions in past years. The results will help you decide how hot, cold, wet, or windy it might be!

Date:

Astronomy

Jul. 11, 2014 Rise Set
Actual Time 6:06 AM EDT 9:09 PM EDT
Civil Twilight 5:33 AM EDT 9:42 PM EDT
Nautical Twilight 4:50 AM EDT 10:25 PM EDT
Astronomical Twilight 3:59 AM EDT 11:16 PM EDT
Moon 8:16 PM EDT (7/11) 5:19 AM EDT (7/11)
Length of Visible Light 16h 09m
Length of Day
15h 02m
Waxing Gibbous, 99% of the Moon is Illuminated
Jul 11
Waxing Gibbous
Jul 12
Full
Jul 18
Last Quarter
Jul 26
New
Aug 3
First Quarter

Hourly Weather History & Observations

Time (EDT) Temp. Dew Point Humidity Pressure Visibility Wind Dir Wind Speed Gust Speed Precip Events Conditions
12:14 AM 66.2 °F 57.2 °F 73% 30.18 in 10.0 mi ENE 3.5 mph - N/A   Clear
12:34 AM 66.2 °F 57.2 °F 73% 30.19 in 10.0 mi East 3.5 mph - N/A   Clear
12:54 AM 64.4 °F 57.2 °F 77% 30.19 in 10.0 mi NE 6.9 mph - N/A   Clear
1:14 AM 64.4 °F 59.0 °F 83% 30.20 in 10.0 mi NE 5.8 mph - N/A   Clear
1:34 AM 64.4 °F 59.0 °F 83% 30.20 in 10.0 mi NE 5.8 mph - N/A   Clear
1:55 AM 64.4 °F 60.8 °F 88% 30.20 in 10.0 mi NE 5.8 mph - N/A   Clear
2:14 AM 64.4 °F 60.8 °F 88% 30.20 in 10.0 mi NE 5.8 mph - N/A   Clear
2:34 AM 64.4 °F 60.8 °F 88% 30.20 in 10.0 mi NE 5.8 mph - N/A   Clear
2:55 AM 64.4 °F 60.8 °F 88% 30.20 in 10.0 mi NNE 3.5 mph - N/A   Clear
3:14 AM 64.4 °F 60.8 °F 88% 30.20 in 10.0 mi NE 5.8 mph - N/A   Clear
4:14 AM 62.6 °F 59.0 °F 88% 30.19 in 10.0 mi NE 3.5 mph - N/A   Clear
4:34 AM 62.6 °F 57.2 °F 82% 30.20 in 10.0 mi Calm Calm - N/A   Clear
4:54 AM 60.8 °F 57.2 °F 88% 30.20 in 10.0 mi Calm Calm - N/A   Clear
5:14 AM 60.8 °F 57.2 °F 88% 30.21 in 10.0 mi North 3.5 mph - N/A   Clear
5:34 AM 60.8 °F 57.2 °F 88% 30.21 in 10.0 mi Calm Calm - N/A   Clear
5:54 AM 60.8 °F 57.2 °F 88% 30.21 in 10.0 mi Calm Calm - N/A   Clear
6:14 AM 60.8 °F 57.2 °F 88% 30.21 in 10.0 mi Calm Calm - N/A   Clear
6:35 AM 60.8 °F 57.2 °F 88% 30.22 in 10.0 mi Calm Calm - N/A   Clear
6:54 AM 62.6 °F 57.2 °F 82% 30.22 in 10.0 mi Calm Calm - N/A   Clear
7:14 AM 64.4 °F 59.0 °F 83% 30.22 in 10.0 mi Calm Calm - N/A   Clear
7:35 AM 64.4 °F 60.8 °F 88% 30.22 in 10.0 mi Calm Calm - N/A   Clear
7:54 AM 66.2 °F 60.8 °F 83% 30.22 in 10.0 mi ENE 3.5 mph - N/A   Clear
8:14 AM 66.2 °F 60.8 °F 83% 30.23 in 10.0 mi ENE 5.8 mph - N/A   Clear
8:34 AM 66.2 °F 60.8 °F 83% 30.23 in 10.0 mi East 4.6 mph - N/A   Clear
8:54 AM 68.0 °F 60.8 °F 78% 30.24 in 10.0 mi ENE 4.6 mph - N/A   Clear
9:14 AM 69.8 °F 60.8 °F 73% 30.23 in 10.0 mi ENE 3.5 mph - N/A   Clear
9:34 AM 71.6 °F 60.8 °F 69% 30.23 in 10.0 mi Calm Calm - N/A   Clear
9:54 AM 71.6 °F 60.8 °F 69% 30.23 in 10.0 mi Calm Calm - N/A   Clear
10:14 AM 73.4 °F 57.2 °F 57% 30.23 in 10.0 mi Calm Calm - N/A   Clear
10:34 AM 73.4 °F 55.4 °F 53% 30.24 in 10.0 mi Calm Calm - N/A   Clear
10:54 AM 73.4 °F 57.2 °F 57% 30.24 in 10.0 mi South 4.6 mph - N/A   Clear
11:14 AM 73.4 °F 59.0 °F 61% 30.24 in 10.0 mi South 6.9 mph - N/A   Clear
11:34 AM 73.4 °F 59.0 °F 61% 30.24 in 10.0 mi South 5.8 mph - N/A   Clear
11:54 AM 73.4 °F 59.0 °F 61% 30.25 in 10.0 mi South 6.9 mph - N/A   Clear
12:14 PM 75.2 °F 60.8 °F 61% 30.24 in 10.0 mi South 9.2 mph - N/A   Clear
12:34 PM 73.4 °F 60.8 °F 65% 30.24 in 10.0 mi South 9.2 mph - N/A   Clear
12:54 PM 75.2 °F 60.8 °F 61% 30.23 in 10.0 mi South 10.4 mph - N/A   Clear
1:14 PM 75.2 °F 59.0 °F 57% 30.22 in 10.0 mi South 9.2 mph - N/A   Clear
1:34 PM 75.2 °F 59.0 °F 57% 30.22 in 10.0 mi South 9.2 mph - N/A   Clear
1:54 PM 75.2 °F 59.0 °F 57% 30.21 in 10.0 mi South 9.2 mph - N/A   Clear
2:14 PM 75.2 °F 59.0 °F 57% 30.21 in 10.0 mi South 9.2 mph - N/A   Clear
2:34 PM 75.2 °F 59.0 °F 57% 30.22 in 10.0 mi South 10.4 mph - N/A   Clear
2:54 PM 75.2 °F 59.0 °F 57% 30.21 in 10.0 mi South 9.2 mph - N/A   Clear
3:14 PM 75.2 °F 57.2 °F 53% 30.21 in 10.0 mi South 10.4 mph - N/A   Clear
3:34 PM 75.2 °F 59.0 °F 57% 30.21 in 10.0 mi South 8.1 mph - N/A   Clear
3:54 PM 77.0 °F 60.8 °F 57% 30.20 in 10.0 mi South 9.2 mph - N/A   Clear
4:14 PM 75.2 °F 60.8 °F 61% 30.19 in 10.0 mi South 9.2 mph - N/A   Clear
4:34 PM 75.2 °F 60.8 °F 61% 30.19 in 10.0 mi SSE 6.9 mph - N/A   Clear
4:54 PM 75.2 °F 60.8 °F 61% 30.19 in 10.0 mi South 8.1 mph - N/A   Clear
5:14 PM 75.2 °F 59.0 °F 57% 30.18 in 10.0 mi South 8.1 mph - N/A   Clear
5:34 PM 75.2 °F 60.8 °F 61% 30.18 in 10.0 mi SSE 8.1 mph - N/A   Clear
5:54 PM 75.2 °F 60.8 °F 61% 30.17 in 10.0 mi SSE 6.9 mph - N/A   Clear
6:14 PM 75.2 °F 60.8 °F 61% 30.16 in 10.0 mi SSE 8.1 mph - N/A   Clear
6:34 PM 75.2 °F 60.8 °F 61% 30.16 in 10.0 mi SSE 6.9 mph - N/A   Clear
6:55 PM 75.2 °F 60.8 °F 61% 30.16 in 10.0 mi SSE 6.9 mph - N/A   Clear
7:14 PM 75.2 °F 57.2 °F 53% 30.15 in 10.0 mi SSE 6.9 mph - N/A   Clear
7:34 PM 73.4 °F 59.0 °F 61% 30.16 in 10.0 mi Calm Calm - N/A   Clear
7:54 PM 73.4 °F 59.0 °F 61% 30.15 in 10.0 mi SE 5.8 mph - N/A   Clear
8:14 PM 73.4 °F 60.8 °F 65% 30.15 in 10.0 mi SSE 4.6 mph - N/A   Clear
8:34 PM 73.4 °F 59.0 °F 61% 30.16 in 10.0 mi SE 3.5 mph - N/A   Clear
8:54 PM 71.6 °F 60.8 °F 69% 30.16 in 10.0 mi Calm Calm - N/A   Clear
9:14 PM 71.6 °F 60.8 °F 69% 30.16 in 10.0 mi Calm Calm - N/A   Clear
9:34 PM 71.6 °F 59.0 °F 64% 30.16 in 10.0 mi Calm Calm - N/A   Clear
9:54 PM 71.6 °F 59.0 °F 64% 30.16 in 10.0 mi SE 4.6 mph - N/A   Clear
10:14 PM 71.6 °F 60.8 °F 69% 30.17 in 10.0 mi SE 3.5 mph - N/A   Clear
10:34 PM 71.6 °F 60.8 °F 69% 30.16 in 10.0 mi SE 5.8 mph - N/A   Clear
10:54 PM 71.6 °F 60.8 °F 69% 30.17 in 10.0 mi SE 4.6 mph - N/A   Clear
11:14 PM 71.6 °F 62.6 °F 73% 30.17 in 10.0 mi SSE 3.5 mph - N/A   Clear
11:34 PM 71.6 °F 62.6 °F 73% 30.17 in 10.0 mi SSE 4.6 mph - N/A   Clear
11:54 PM 71.6 °F 62.6 °F 73% 30.17 in 10.0 mi SSE 4.6 mph - N/A   Clear